Location: Cilleruelo de San Mamés
(41.4322°N, 3.5661°W)
Time: 10:55:18
(UTC+00:00)

Daily predictions for brighter satellites

Satellite Brightness Start Highest point End
(mag) Time Altitude Azimuth Time Altitude Azimuth Time Altitude Azimuth
COSMOS 2406 4.4 19:51:14 10° SSE 19:55:28 22° E 19:59:44 10° NE
SL-4 R/B 3.8 19:53:53 10° W 19:56:51 22° SW 19:59:52 10° S
Cosmos 1782 3.6 19:54:38 10° SSE 19:57:34 26° E 20:00:33 10° NNE
Cosmos 724 4.4 19:52:11 10° SSW 19:58:14 89° WNW 20:04:13 10° NNE
CZ-4B R/B 4.0 19:54:39 10° SSE 19:58:36 62° ENE 20:02:35 10° N
Okean-O 4.5 19:56:03 10° E 19:58:40 16° ENE 20:01:16 10° NNE
CZ-4 R/B 1.3 19:55:09 10° SSE 19:58:40 53° ENE 20:02:13 10° N
Cosmos 1980 Rocket 2.4 19:54:24 10° NNW 20:00:04 60° ENE 20:05:38 10° SE
CSL-04 Rocket 3.8 19:58:09 10° SSE 20:03:39 89° WSW 20:09:07 10° NNW
ASTEX 1 3.4 19:59:34 10° S 20:04:31 86° E 20:09:30 10° N
Cosmos 1725 Rocket 4.1 20:01:13 10° SSE 20:07:18 56° E 20:13:22 10° NNE
Cosmos 2333 Rocket 4.1 20:07:57 10° N 20:11:34 17° NE 20:15:12 10° E
ERS-1 Rocket 3.1 20:07:25 10° SSE 20:12:18 57° ENE 20:17:14 10° N
ATLAS 3B R/B 3.2 20:05:12 10° NW 20:12:50 67° WSW 20:19:56 10° SSE
USA 305 2.6 20:14:38 10° NW 20:18:46 87° SW 20:21:49 14° SE
Cosmos 2173 Rocket 4.3 20:15:45 10° SSW 20:21:52 73° W 20:28:06 10° N
Cosmos 2016 Rocket 4.0 20:15:41 10° S 20:21:53 66° E 20:28:00 10° NNE
CZ-4B DEB 4.2 20:16:47 10° SSE 20:22:17 83° ENE 20:27:51 10° NNW
Cosmos 1461 3.4 20:20:06 10° S 20:23:17 27° ESE 20:26:27 10° NE
Cosmos 2360 Rocket 4.3 20:22:44 10° NNE 20:25:16 13° NE 20:27:47 10° ENE
CZ-4B R/B 3.4 20:19:48 10° SSE 20:25:22 64° ENE 20:30:55 10° N
CZ-4C R/B 3.9 20:23:19 10° WSW 20:27:01 29° NW 20:31:33 10° NNE
Cosmos 1992 Rocket 4.2 20:23:01 10° S 20:28:01 49° ESE 20:33:01 10° NNE
ISS -0.9 20:32:12 10° WNW 20:34:36 18° NNW 20:37:01 10° NNE
Cosmos 1437 Rocket 4.0 20:36:40 18° ESE 20:37:27 19° E 20:40:04 10° NE
Feng Yun 1-1 Rocket 4.4 20:34:29 10° S 20:39:50 72° WSW 20:45:17 10° NNW
Gbstr 26 Del rocket 3.4 20:39:41 10° WNW 20:44:43 58° SW 20:47:30 21° SSE
DEBRIS 4.4 20:42:20 10° WNW 20:44:56 35° N 20:50:58 10° ENE
NOSS 3-3 (A) 3.8 20:41:11 10° SW 20:46:11 74° NW 20:52:08 10° NNE
SL-08 R/B 3.2 20:42:11 10° NNE 20:47:00 78° ESE 20:51:42 10° S
Cosmos 1626 Rocket 4.3 20:44:51 10° N 20:48:54 36° ENE 20:51:00 23° SE
Cosmos 1743 2.9 20:46:34 10° NNW 20:49:29 47° W 20:51:59 13° SSW
Terra 2.0 20:45:12 10° S 20:49:51 70° WSW 20:54:33 10° NNW
GEOS 3 Rocket 4.0 20:48:21 16° SSE 20:52:35 62° WSW 20:57:55 10° NW
Delta 2 Rocket 3.6 20:50:44 10° WSW 20:53:23 26° S 20:53:26 26° S
IRS-1A Rocket 4.4 20:50:47 14° SSE 20:55:51 90° ENE 21:01:48 10° NNW
Cosmos 909 Rocket 4.2 20:50:07 10° SW 20:56:32 78° WNW 21:02:55 10° NNE
Cosmos 2151 3.9 20:53:12 10° NNE 20:56:52 30° ENE 20:58:09 25° ESE
Cosmos 2061 Rocket 3.9 20:50:44 10° S 20:56:56 78° E 21:03:13 10° N
Cosmos 2322 Rocket 3.7 20:53:12 10° N 20:57:38 23° NE 21:00:46 15° E
Cosmos 2082 Rocket 3.0 20:52:34 10° SW 20:58:09 55° WNW 21:03:46 10° NNE
Helios 1A Rocket 4.2 20:55:54 10° N 20:58:43 30° WNW 21:01:31 10° SW
Cosmos 2237 4.2 20:53:33 10° NNW 20:59:20 81° ENE 21:03:03 23° SSE
ADEOS 3.8 20:54:57 13° S 20:59:36 71° WSW 21:04:49 10° NNW
Cosmos 1375 Rocket 4.5 20:58:11 10° SSW 21:04:35 70° ESE 21:11:06 10° NE
Cosmos 2369 3.8 20:59:34 10° NNW 21:05:19 80° WSW 21:09:06 22° SSE
CZ-4B R/B 3.4 21:09:42 29° E 21:10:07 30° ENE 21:13:10 10° N
Milstar 3 4.2 21:05:03 10° WSW 21:10:22 23° S 21:13:16 19° SSE
USA 186 1.1 21:11:04 69° SSE 21:11:20 82° ENE 21:14:05 10° N
MOS 1-B 4.3 21:08:38 22° SSE 21:12:33 87° ENE 21:18:24 10° NNW
Okean O Rocket 1.5 21:11:14 27° S 21:13:34 84° WSW 21:17:53 10° NNW
Cosmos 2228 4.3 21:13:03 10° SSW 21:16:53 38° WNW 21:20:44 10° N
NOSS 3-3 (C) 4.5 21:13:10 10° SW 21:18:11 53° NW 21:24:08 10° NNE
DELTA 2 R/B (1) 3.5 21:15:32 10° W 21:21:06 74° S 21:24:09 27° ESE
Cosmos 1805 4.4 21:20:06 10° NNE 21:22:21 23° ENE 21:22:21 23° ENE
Cosmos 2278 4.2 21:18:30 10° NNW 21:24:01 48° ENE 21:26:23 31° ESE
Cosmos 1544 Rocket 3.5 21:22:19 24° S 21:24:53 84° W 21:29:14 10° N
CZ-2C R/B 4.0 21:27:14 18° NE 21:27:14 18° NE 21:28:34 10° NNE
SL-16 R/B 2.3 21:22:56 10° NNW 21:28:36 66° ENE 21:30:55 36° SE
Cosmos 2084 Rocket 4.5 21:26:06 10° NW 21:29:59 36° WSW 21:31:26 28° SSW
BREEZE-M DEB (TANK) 4.1 21:27:32 10° WNW 21:31:09 55° SSW 21:35:09 29° SSE
Cosmos 1891 Rocket 4.3 21:29:44 22° S 21:33:55 85° E 21:39:59 10° N
NOSS 3-4 (A) 4.4 21:27:50 10° NNW 21:34:26 50° NE 21:38:39 26° ESE
Okean-O 3.2 21:32:20 26° SSW 21:34:30 50° W 21:38:47 10° NNW
NOSS 3-4 (C) 4.4 21:28:27 10° NNW 21:35:05 50° NE 21:39:18 26° ESE
Cosmos 1933 3.2 21:37:02 44° SSW 21:38:08 75° W 21:41:57 10° N
COSMOS 2406 3.9 21:33:41 10° SW 21:39:17 54° WNW 21:44:56 10° NNE
Ariane Rocket 3.0 21:38:06 42° SE 21:39:39 64° ENE 21:44:40 10° N
Cosmos 1980 Rocket 4.3 21:39:36 10° NW 21:43:28 19° W 21:47:19 10° SW
SPOT 3 Rocket 3.4 21:41:43 41° SSE 21:43:35 90° W 21:48:44 10° NNW
Cosmos 1758 Rocket 4.0 21:41:45 10° NNW 21:46:04 56° W 21:47:38 35° SSW
Meteor 1-20 Rocket 4.4 21:43:57 10° NNW 21:49:32 71° W 21:52:02 34° S
Cosmos 1763 Rocket 3.6 21:53:12 49° SE 21:53:44 52° ESE 21:58:51 10° NNE
Nadezhda 4 Rocket 4.0 21:48:23 10° N 21:54:26 61° E 21:56:13 44° SE
Okean 1 4.0 21:56:18 36° NE 21:56:18 36° NE 21:58:45 10° NNE
Cosmos 2333 Rocket 2.2 21:50:52 10° NNW 21:56:36 84° WSW 21:58:17 48° SSE
DNEPR-1 R/B 4.5 21:51:54 10° NNW 21:57:37 72° ENE 21:59:54 43° SE
Cosmos 1833 4.2 21:57:58 50° SSE 21:59:05 60° ESE 22:04:38 10° NNE
Cosmos 1825 Rocket 3.8 21:55:02 10° N 21:59:17 53° E 21:59:17 53° E
CZ-4B R/B 3.5 22:05:27 52° SSW 22:06:25 67° WSW 22:11:13 10° NNW
Cosmos 1602 Rocket 3.9 22:06:02 10° NNW 22:10:15 54° W 22:10:49 49° SW
Cosmos 2360 Rocket 2.2 22:04:35 10° NNW 22:10:17 73° ENE 22:11:23 56° SE
USA 290 3.9 22:12:10 31° N 22:12:10 31° N 22:14:00 10° NNE
ISS -0.8 22:10:21 10° NNW 22:12:22 15° N 22:14:19 10° NE
BREEZE-M DEB (TANK) 4.5 22:12:03 10° NW 22:13:11 13° N 22:13:11 13° N
Cosmos 2058 Rocket 4.3 22:14:25 29° ENE 22:14:25 29° ENE 22:17:12 10° NNE
Cosmos 2026 Rocket 4.3 22:10:51 10° N 22:17:05 52° ENE 22:18:17 46° ESE
Cosmos 2333 4.2 22:12:16 10° NNW 22:18:00 70° ENE 22:19:00 58° ESE
Cosmos 1777 Rocket 3.8 22:15:30 10° NNW 22:20:44 81° WSW 22:21:18 70° S
Cosmos 2098 Rocket 4.0 22:20:59 36° SW 22:22:22 46° W 22:26:34 10° N
Cosmos 2219 Rocket 2.4 22:18:03 10° NNW 22:23:39 58° ENE 22:24:29 52° E
Helios 1A 4.2 22:20:12 10° NNE 22:22:29 31° NE 22:22:29 31° NE
Cosmos 1076 Rocket 3.7 22:24:22 10° N 22:28:03 65° N 22:28:03 65° N
Cosmos 1503 Rocket 3.8 22:24:09 10° NNW 22:29:21 89° WSW 22:29:38 81° S
Cosmos 2322 Rocket 2.4 22:36:29 10° NNW 22:42:01 58° WSW 22:42:34 55° SW
Cosmos 1354 Rocket 3.9 22:38:28 10° NNW 22:43:44 84° ENE 22:43:44 84° ENE
Cosmos 540 Rocket 4.1 22:52:54 43° WSW 22:53:57 50° WNW 22:58:59 10° N
Cosmos 2237 Rocket 4.2 22:56:19 10° N 23:00:06 18° NE 23:02:16 15° ENE
Meteor 1-26 Rocket 4.3 22:59:42 60° WSW 23:00:18 64° WNW 23:05:55 10° N
Aureole 1 Rocket 4.0 22:55:57 10° NNW 23:01:59 78° ENE 23:02:46 69° SE
Cosmos 1092 Rocket 3.8 22:58:21 10° N 23:04:32 81° W 23:05:07 73° SSW
Meteor 2-2 Rocket 4.3 23:05:51 66° WSW 23:06:19 69° WNW 23:12:04 10° N
Cosmos-2242 4.2 23:10:18 38° NW 23:10:18 38° NW 23:13:24 10° N
Cosmos 468 Rocket 4.2 23:10:31 66° WNW 23:10:34 66° WNW 23:15:50 10° NNE
COSMOS 2428 3.3 23:06:20 10° NNW 23:11:49 46° ENE 23:12:10 45° ENE
SL-16 R/B 4.1 23:08:31 10° WNW 23:12:02 17° W 23:12:46 17° WSW
Helios 1B rocket 4.4 23:29:08 22° NNW 23:29:08 22° NNW 23:30:31 10° NNW
Cosmos 2221 3.8 23:35:23 36° N 23:35:23 36° N 23:37:56 10° N
USA 234 3.1 23:27:56 10° NE 23:34:28 73° SE 23:34:29 73° SE
CZ-2C R/B 4.1 23:31:03 10° NNE 23:35:48 41° ENE 23:35:48 41° ENE
ACS3 Solar Sail 3.7 23:34:12 10° NE 23:37:20 15° E 23:37:20 15° E
Cosmos 2279 Rocket 4.0 23:37:49 66° WSW 23:38:14 68° W 23:44:29 10° N
Meteor 1-14 Rocket 4.2 23:36:48 10° NNW 23:41:51 73° NW 23:41:51 73° NW
Cosmos 2297 Rocket 2.7 23:43:29 49° ENE 23:43:29 49° ENE 23:47:56 10° NNE
Cosmos 1898 Rocket 3.8 23:37:52 10° NNW 23:42:13 63° NNW 23:42:13 63° NNW
Cosmos 44 4.3 23:41:14 10° NW 23:45:12 44° WNW 23:45:12 44° WNW
ISS -0.5 23:46:50 10° NW 23:47:14 13° NW 23:47:14 13° NW
Cosmos 2360 Rocket 4.3 23:50:23 10° WNW 23:53:08 15° W 23:53:08 15° W
